Tracking 31027 objects as of 19-Jul-2025
HD Live streaming from Space Station
objects crossing your sky now

SL-12 R/B(2)

Track SL-12 R/B(2) now!


NORAD ID: 25598
Int'l Code: 1998-077F
Perigee: 19,082.2 km
Apogee: 19,143.2 km
Inclination: 64.1 °
Period: 674.8 minutes
Semi major axis: 25483 km
RCS: 0.5799 m2 (medium)
Launch date: December 30, 1998
Source: Commonwealth of Independent States (former USSR) (CIS)
Launch site: TYURATAM MISSILE AND SPACE COMPLEX (TTMTR)

Note: This is a ROCKET BODY
Your satellite tracking list
MOLNIYA 1-86
Track 1 satellite(s)




NASA's NSSDC Master Catalog

Two Line Element Set (TLE):
1 25598U 98077F   25193.87475447 -.00000002  00000-0  00000-0 0  9999
2 25598  64.1300  71.0213 0011970 261.4150 282.0960  2.13407122206744
Source of the keplerian elements: AFSPC